FW2365 Weather Reports


Display with metric or nautical units.
time (UTC)temp
F
wind
direction
speed
MPH
gust
MPH
rain 1hr
in
rain 24hr
in
rain mn
in
humidity
%
barometer
mb
20260507004012 49 309 0.0 3.0 0.00 0.00 0.00 78 1014.0
20260507003512 49 309 1.0 3.0 0.00 0.00 0.00 78 1014.0
20260507003010 49 309 0.0 3.0 0.00 0.00 0.00 78 1014.0
20260507002509 50 262 0.0 0.0 0.00 0.00 0.00 78 1013.9
20260507002010 50 262 0.0 0.0 0.00 0.00 0.00 78 1014.0
20260507001513 50 266 0.0 0.0 0.00 0.00 0.00 78 1013.9
20260507001009 50 266 0.0 0.0 0.00 0.00 0.00 78 1013.9
20260507000510 50 266 0.0 0.0 0.00 0.00 0.00 78 1014.0
20260507000009 50 266 0.0 0.0 0.00 0.00 0.00 78 1014.0
20260506235507 50 266 0.0 1.0 0.00 0.00 0.00 78 1014.0
20260506235008 50 266 0.0 1.0 0.00 0.00 0.00 77 1014.0
20260506234508 50 266 0.0 0.0 0.00 0.00 0.00 77 1014.0
20260506234005 51 266 0.0 0.0 0.00 0.00 0.00 76 1014.0
20260506233505 51 266 0.0 0.0 0.00 0.00 0.00 76 1013.9
20260506233004 51 266 0.0 0.0 0.00 0.00 0.00 76 1014.0
20260506232506 51 266 0.0 0.0 0.00 0.00 0.00 76 1014.0
20260506232004 51 266 0.0 0.0 0.00 0.00 0.00 76 1014.0
20260506231503 51 266 0.0 1.0 0.00 0.00 0.00 75 1014.0
20260506231003 51 266 0.0 1.0 0.00 0.00 0.00 74 1013.9
20260506230502 51 266 0.0 0.0 0.00 0.00 0.00 73 1013.9
20260506230001 51 266 0.0 0.0 0.00 0.00 0.00 74 1013.8
20260506225501 51 266 0.0 0.0 0.00 0.00 0.00 73 1013.9
20260506225001 51 266 0.0 0.0 0.00 0.00 0.00 73 1014.0
20260506224501 51 266 0.0 0.0 0.00 0.00 0.00 72 1013.9
20260506224101 51 266 0.0 0.0 0.00 0.00 0.00 72 1013.9
20260506223559 51 266 0.0 0.0 0.00 0.00 0.00 72 1013.8
20260506223059 51 266 0.0 1.0 0.00 0.00 0.00 71 1013.7
20260506222559 52 266 0.0 1.0 0.00 0.00 0.00 70 1013.7
20260506222058 52 266 0.0 1.0 0.00 0.00 0.00 70 1013.7
20260506221558 52 266 0.0 0.0 0.00 0.00 0.00 68 1013.6
20260506221055 52 266 0.0 0.0 0.00 0.00 0.00 67 1013.6
20260506220555 52 266 0.0 0.0 0.00 0.00 0.00 66 1013.5
20260506220054 52 266 0.0 0.0 0.00 0.00 0.00 65 1013.5
20260506215557 53 266 0.0 1.0 0.00 0.00 0.00 64 1013.4
20260506215053 53 266 0.0 1.0 0.00 0.00 0.00 64 1013.4
20260506214553 53 266 0.0 3.0 0.00 0.00 0.00 64 1013.4
20260506214053 53 266 0.0 5.0 0.00 0.00 0.00 63 1013.4
20260506213552 53 285 1.0 5.0 0.00 0.00 0.00 63 1013.4
20260506213053 53 282 3.0 6.0 0.00 0.00 0.00 63 1013.3
20260506212555 53 265 3.0 6.0 0.00 0.00 0.00 63 1013.4
20260506212051 53 304 2.0 8.0 0.00 0.00 0.00 63 1013.3
20260506211551 53 160 3.0 10.0 0.00 0.00 0.00 63 1013.3
20260506211051 53 285 4.0 10.0 0.00 0.00 0.00 63 1013.2
20260506210550 53 282 3.0 8.0 0.00 0.00 0.00 63 1013.2
20260506210051 53 281 4.0 10.0 0.00 0.00 0.00 63 1013.1
20260506205549 53 276 4.0 11.0 0.00 0.00 0.00 63 1013.1
20260506205049 53 278 5.0 13.0 0.00 0.00 0.00 63 1013.0
20260506204548 53 297 7.0 12.0 0.00 0.00 0.00 63 1013.0
20260506204047 53 272 6.0 12.0 0.00 0.00 0.00 63 1013.0
20260506203547 53 304 5.0 14.0 0.00 0.00 0.00 63 1012.8
20260506203051 53 275 8.0 17.0 0.00 0.00 0.00 62 1012.7
20260506202546 53 276 7.0 17.0 0.00 0.00 0.00 62 1012.7
20260506202046 53 309 7.0 14.0 0.00 0.00 0.00 62 1012.7
20260506201606 53 309 7.0 14.0 0.00 0.00 0.00 62 1012.6
20260506201046 53 262 8.0 14.0 0.00 0.00 0.00 63 1012.5
20260506200545 54 294 6.0 17.0 0.00 0.00 0.00 63 1012.3
20260506200045 54 272 9.0 17.0 0.00 0.00 0.00 62 1012.2
20260506195545 54 277 8.0 15.0 0.00 0.00 0.00 63 1012.0
20260506195045 54 289 8.0 15.0 0.00 0.00 0.00 63 1012.0
20260506194551 54 271 7.0 15.0 0.00 0.00 0.00 63 1011.9
20260506194045 54 281 5.0 13.0 0.00 0.00 0.00 63 1011.8
20260506193544 54 304 7.0 15.0 0.00 0.00 0.00 63 1011.7
20260506193050 54 272 7.0 14.0 0.00 0.00 0.00 64 1011.7
20260506192543 54 257 10.0 18.0 0.00 0.00 0.00 64 1011.6
20260506192046 55 314 8.0 18.0 0.00 0.00 0.00 64 1011.5
20260506191543 55 295 9.0 18.0 0.00 0.00 0.00 64 1011.3
20260506191146 55 274 9.0 19.0 0.00 0.00 0.00 64 1011.2
20260506190545 55 276 11.0 21.0 0.00 0.00 0.00 65 1011.2
20260506190043 55 290 10.0 21.0 0.00 0.00 0.00 66 1011.0
20260506185541 55 295 10.0 22.0 0.00 0.00 0.00 66 1011.0
20260506185042 56 304 10.0 22.0 0.00 0.00 0.00 65 1010.7
20260506184549 56 314 9.0 23.0 0.00 0.00 0.00 64 1010.5
20260506184042 57 272 12.0 23.0 0.00 0.00 0.00 63 1010.2
20260506183544 57 309 11.0 22.0 0.00 0.00 0.00 62 1010.1
20260506183041 57 299 11.0 20.0 0.00 0.00 0.00 62 1010.0
20260506182541 57 309 12.0 20.0 0.00 0.00 0.00 62 1009.9
20260506182041 58 290 11.0 18.0 0.00 0.00 0.00 61 1009.9
20260506181540 58 309 10.0 18.0 0.00 0.00 0.00 60 1009.9
20260506181040 58 304 7.0 18.0 0.00 0.00 0.00 62 1009.7
20260506180540 58 282 7.0 13.0 0.00 0.00 0.00 62 1009.6
20260506180040 58 291 7.0 13.0 0.00 0.00 0.00 62 1009.6
20260506175539 58 291 6.0 12.0 0.00 0.00 0.00 62 1009.5
20260506175040 58 284 5.0 11.0 0.00 0.00 0.00 62 1009.6
20260506174540 58 279 3.0 11.0 0.00 0.00 0.00 61 1009.3
20260506174039 58 267 5.0 14.0 0.00 0.00 0.00 61 1009.2
20260506173542 58 281 5.0 17.0 0.00 0.00 0.00 61 1009.0
20260506173048 58 339 7.0 17.0 0.00 0.00 0.00 61 1008.9
20260506172538 58 292 7.0 17.0 0.00 0.00 0.00 61 1008.8
20260506172038 58 304 9.0 17.0 0.00 0.00 0.00 61 1008.6
20260506171550 59 251 8.0 12.0 0.00 0.00 0.00 60 1008.4
20260506171038 59 266 7.0 15.0 0.00 0.00 0.00 60 1008.3
20260506170538 59 265 6.0 17.0 0.00 0.00 0.00 60 1008.4
20260506170037 59 304 10.0 17.0 0.00 0.00 0.00 59 1008.1
20260506165638 59 304 9.0 16.0 0.00 0.00 0.00 59 1008.1
20260506165037 60 304 8.0 13.0 0.00 0.00 0.00 59 1007.9
20260506164537 60 284 6.0 15.0 0.00 0.00 0.00 57 1007.9
20260506164038 60 257 7.0 17.0 0.00 0.00 0.00 57 1007.7
20260506163536 60 268 9.0 20.0 0.00 0.00 0.00 55 1007.8
20260506163049 61 272 12.0 20.0 0.00 0.00 0.00 54 1007.7
20260506162535 63 284 10.0 19.0 0.00 0.00 0.00 50 1007.8
20260506162039 64 272 9.0 19.0 0.00 0.00 0.00 46 1007.7
20260506161541 65 268 5.0 11.0 0.00 0.00 0.00 40 1007.7
20260506161037 65 267 5.0 12.0 0.00 0.00 0.00 39 1007.7
20260506160535 65 304 3.0 12.0 0.00 0.00 0.00 38 1007.7
20260506160035 65 339 3.0 9.0 0.00 0.00 0.00 39 1007.6
20260506155534 66 320 2.0 10.0 0.00 0.00 0.00 39 1007.5
20260506155034 66 133 2.0 12.0 0.00 0.00 0.00 40 1007.5
20260506154538 66 335 1.0 12.0 0.00 0.00 0.00 38 1007.4
20260506154033 66 190 1.0 9.0 0.00 0.00 0.00 38 1007.3
20260506153532 67 89 3.0 11.0 0.00 0.00 0.00 38 1007.1
20260506153035 67 176 2.0 11.0 0.00 0.00 0.00 38 1007.1
20260506152531 67 153 3.0 10.0 0.00 0.00 0.00 39 1007.0
20260506152032 67 229 1.0 10.0 0.00 0.00 0.00 39 1007.0
20260506151530 67 110 1.0 10.0 0.00 0.00 0.00 39 1007.2
20260506151031 67 139 3.0 10.0 0.00 0.00 0.00 40 1007.1
20260506150531 68 280 2.0 8.0 0.00 0.00 0.00 39 1006.9
20260506150032 68 19 2.0 11.0 0.00 0.00 0.00 38 1006.9
20260506145531 68 314 4.0 11.0 0.00 0.00 0.00 38 1006.9
20260506145034 68 282 1.0 11.0 0.00 0.00 0.00 38 1006.9
20260506144530 69 314 6.0 11.0 0.00 0.00 0.00 38 1006.8
20260506144030 69 292 3.0 8.0 0.00 0.00 0.00 39 1006.6
20260506143530 69 285 4.0 8.0 0.00 0.00 0.00 39 1006.6
20260506143029 69 260 1.0 5.0 0.00 0.00 0.00 40 1006.6
20260506142528 69 127 1.0 6.0 0.00 0.00 0.00 42 1006.6
20260506142028 69 282 1.0 3.0 0.00 0.00 0.00 39 1006.5
20260506141528 69 185 1.0 3.0 0.00 0.00 0.00 41 1006.7
20260506141030 69 183 1.0 3.0 0.00 0.00 0.00 43 1006.6
20260506140530 69 122 0.0 3.0 0.00 0.00 0.00 42 1006.6
20260506140030 69 122 0.0 4.0 0.00 0.00 0.00 44 1006.7
20260506135527 70 107 1.0 4.0 0.00 0.00 0.00 41 1006.8
20260506135029 70 160 0.0 3.0 0.00 0.00 0.00 44 1006.9
20260506134528 70 159 1.0 4.0 0.00 0.00 0.00 44 1006.9
20260506134028 70 320 1.0 4.0 0.00 0.00 0.00 42 1006.8
20260506133525 70 24 0.0 4.0 0.00 0.00 0.00 42 1006.8
20260506133025 70 25 0.0 8.0 0.00 0.00 0.00 44 1006.7
20260506132525 70 314 5.0 10.0 0.00 0.00 0.00 40 1006.6
20260506132025 70 318 7.0 10.0 0.00 0.00 0.00 43 1006.6
20260506131525 70 283 7.0 10.0 0.00 0.00 0.00 44 1006.6
20260506131026 69 279 2.0 10.0 0.00 0.00 0.00 40 1006.6
20260506130525 69 304 6.0 10.0 0.00 0.00 0.00 45 1006.7
20260506130022 69 309 4.0 9.0 0.00 0.00 0.00 45 1006.8
20260506125521 69 314 5.0 9.0 0.00 0.00 0.00 44 1006.9
20260506125021 69 271 6.0 10.0 0.00 0.00 0.00 43 1006.8
20260506124521 69 318 7.0 10.0 0.00 0.00 0.00 44 1006.8
20260506124022 69 304 6.0 9.0 0.00 0.00 0.00 43 1006.9
20260506123520 69 298 6.0 10.0 0.00 0.00 0.00 44 1007.0
20260506123019 69 309 3.0 9.0 0.00 0.00 0.00 43 1007.1
20260506122518 69 106 1.0 3.0 0.00 0.00 0.00 46 1007.2
20260506122016 69 139 1.0 2.0 0.00 0.00 0.00 46 1007.3
20260506121515 68 156 0.0 9.0 0.00 0.00 0.00 49 1007.4
20260506121014 67 149 2.0 9.0 0.00 0.00 0.00 48 1007.5
20260506120514 67 299 4.0 9.0 0.00 0.00 0.00 49 1007.5
20260506120013 66 322 3.0 9.0 0.00 0.00 0.00 51 1007.4
20260506115511 66 304 6.0 11.0 0.00 0.00 0.00 50 1007.5
20260506115010 65 265 4.0 12.0 0.00 0.00 0.00 52 1007.5
20260506114510 65 309 7.0 12.0 0.00 0.00 0.00 52 1007.6
20260506114009 65 272 6.0 11.0 0.00 0.00 0.00 52 1007.5
20260506113508 65 309 6.0 9.0 0.00 0.00 0.00 51 1007.6
20260506113014 65 304 4.0 9.0 0.00 0.00 0.00 52 1007.6
20260506112507 65 309 5.0 12.0 0.00 0.00 0.00 53 1007.7
20260506112006 65 309 7.0 12.0 0.00 0.00 0.00 52 1007.8
20260506111505 65 304 6.0 11.0 0.00 0.00 0.00 54 1007.9
20260506111004 64 309 6.0 13.0 0.00 0.00 0.00 52 1008.0
20260506110504 64 344 9.0 13.0 0.00 0.00 0.00 54 1008.0
20260506105502 64 304 9.0 14.0 0.00 0.00 0.00 55 1008.1
20260506105001 64 323 6.0 12.0 0.00 0.00 0.00 55 1008.2
20260506104600 64 304 8.0 12.0 0.00 0.00 0.00 55 1008.3
20260506104059 64 304 5.0 9.0 0.00 0.00 0.00 57 1008.4
20260506103558 63 278 2.0 10.0 0.00 0.00 0.00 52 1008.5
20260506103056 63 309 6.0 10.0 0.00 0.00 0.00 58 1008.6
20260506102555 63 293 6.0 9.0 0.00 0.00 0.00 57 1008.8
20260506102055 62 280 6.0 12.0 0.00 0.00 0.00 54 1008.9
20260506101553 62 293 8.0 12.0 0.00 0.00 0.00 58 1008.9
20260506101053 62 299 5.0 10.0 0.00 0.00 0.00 59 1009.0
20260506100552 61 338 2.0 5.0 0.00 0.00 0.00 61 1009.2
20260506100051 61 309 3.0 5.0 0.00 0.00 0.00 61 1009.3
20260506095551 60 304 2.0 4.0 0.00 0.00 0.00 60 1009.2
20260506095050 60 304 1.0 4.0 0.00 0.00 0.00 60 1009.3
20260506094551 60 293 3.0 5.0 0.00 0.00 0.00 59 1009.3
20260506094050 61 309 3.0 5.0 0.00 0.00 0.00 58 1009.3
20260506093550 61 309 1.0 3.0 0.00 0.00 0.00 59 1009.3
20260506093107 61 265 0.0 2.0 0.00 0.00 0.00 56 1009.3
20260506092550 61 265 0.0 2.0 0.00 0.00 0.00 59 1009.3
20260506092050 61 265 1.0 3.0 0.00 0.00 0.00 59 1009.3
20260506091550 62 265 1.0 3.0 0.00 0.00 0.00 57 1009.2
20260506091050 61 282 1.0 4.0 0.00 0.00 0.00 59 1009.2
20260506090550 61 309 0.0 5.0 0.00 0.00 0.00 57 1009.1
20260506090055 61 304 2.0 6.0 0.00 0.00 0.00 60 1009.0
20260506085548 61 295 4.0 6.0 0.00 0.00 0.00 59 1009.1
20260506085047 61 320 0.0 4.0 0.00 0.00 0.00 61 1009.1
20260506084547 61 72 1.0 2.0 0.00 0.00 0.00 62 1009.2
20260506084048 61 81 0.0 2.0 0.00 0.00 0.00 59 1009.2
20260506083548 61 81 0.0 4.0 0.00 0.00 0.00 60 1009.2
20260506083046 62 81 0.0 4.0 0.00 0.00 0.00 56 1009.2
20260506082544 62 304 1.0 4.0 0.00 0.00 0.00 58 1009.2
20260506082043 61 314 0.0 2.0 0.00 0.00 0.00 62 1009.3
20260506081542 60 314 0.0 2.0 0.00 0.00 0.00 64 1009.4
20260506081041 59 314 0.0 1.0 0.00 0.00 0.00 65 1009.4
20260506080540 59 314 0.0 3.0 0.00 0.00 0.00 67 1009.5
20260506073029 57 122 0.0 2.0 0.00 0.00 0.00 70 1010.2
20260506072529 56 319 0.0 1.0 0.00 0.00 0.00 71 1010.1
20260506072028 56 319 0.0 2.0 0.00 0.00 0.00 70 1010.3
20260506071528 56 319 1.0 2.0 0.00 0.00 0.00 73 1010.3
20260506071027 56 314 0.0 3.0 0.00 0.00 0.00 72 1010.4
20260506070530 56 314 1.0 3.0 0.00 0.00 0.00 70 1010.5
20260506062019 53 166 0.0 2.0 0.00 0.00 0.00 73 1010.7
20260506061519 53 166 0.0 2.0 0.00 0.00 0.00 74 1010.8
20260506061018 52 166 0.0 2.0 0.00 0.00 0.00 73 1010.8
20260506060518 52 166 0.0 2.0 0.00 0.00 0.00 76 1010.7
20260506051008 48 169 0.0 2.0 0.00 0.00 0.00 79 1011.5
20260506050508 48 169 1.0 2.0 0.00 0.00 0.00 78 1011.8
20260506045010 49 169 0.0 3.0 0.00 0.00 0.00 80 1011.8
20260506044510 48 169 2.0 3.0 0.00 0.00 0.00 79 1011.9
20260506044009 48 169 2.0 4.0 0.00 0.00 0.00 81 1011.9
20260506043508 47 309 1.0 3.0 0.00 0.00 0.00 80 1011.8
20260506043005 47 309 1.0 4.0 0.00 0.00 0.00 82 1011.7
20260506042504 46 168 1.0 2.0 0.00 0.00 0.00 83 1011.7
20260506042003 47 168 0.0 2.0 0.00 0.00 0.00 83 1011.7
20260506041501 47 168 0.0 2.0 0.00 0.00 0.00 82 1011.7
20260506041002 47 168 0.0 1.0 0.00 0.00 0.00 80 1011.7
20260506040504 48 309 0.0 2.0 0.00 0.00 0.00 80 1011.8
20260506040001 49 168 0.0 2.0 0.00 0.00 0.00 80 1011.8
20260506035602 49 309 1.0 2.0 0.00 0.00 0.00 79 1011.7
20260506035059 48 309 0.0 3.0 0.00 0.00 0.00 78 1011.6
20260506034603 48 168 1.0 3.0 0.00 0.00 0.00 80 1011.4
20260506034058 48 168 0.0 2.0 0.00 0.00 0.00 81 1011.4
20260506033558 48 168 0.0 2.0 0.00 0.00 0.00 81 1011.5
20260506033058 48 168 1.0 2.0 0.00 0.00 0.00 81 1011.6
20260506032556 47 168 0.0 2.0 0.00 0.00 0.00 82 1011.7
20260506032055 47 168 0.0 2.0 0.00 0.00 0.00 83 1011.9
20260506031556 47 168 0.0 2.0 0.00 0.00 0.00 82 1012.2
20260506031052 47 309 0.0 2.0 0.00 0.00 0.00 81 1012.3
20260506030553 48 309 0.0 2.0 0.00 0.00 0.00 81 1012.4
20260506030051 48 168 0.0 2.0 0.00 0.00 0.00 80 1012.4
20260506025553 48 309 0.0 2.0 0.00 0.00 0.00 81 1012.5
20260506025051 48 309 0.0 2.0 0.00 0.00 0.00 81 1012.5
20260506024551 48 168 1.0 2.0 0.00 0.00 0.00 81 1012.4
20260506024051 48 168 0.0 2.0 0.00 0.00 0.00 81 1012.4
20260506023551 48 168 1.0 2.0 0.00 0.00 0.00 81 1012.3
20260506023055 48 309 0.0 2.0 0.00 0.00 0.00 81 1012.4
20260506022549 48 309 0.0 2.0 0.00 0.00 0.00 80 1012.6
20260506022048 48 168 0.0 2.0 0.00 0.00 0.00 79 1012.6
20260506021548 49 309 0.0 2.0 0.00 0.00 0.00 78 1012.6
20260506021050 49 168 0.0 2.0 0.00 0.00 0.00 79 1012.7
20260506020546 49 309 0.0 2.0 0.00 0.00 0.00 79 1012.6
20260506020114 49 309 1.0 2.0 0.00 0.00 0.00 78 1012.3
20260506015549 49 309 0.0 2.0 0.00 0.00 0.00 78 1012.1
20260506015046 49 168 0.0 3.0 0.00 0.00 0.00 79 1012.3
20260506014546 48 309 1.0 3.0 0.00 0.00 0.00 79 1012.3
20260506014044 49 309 1.0 2.0 0.00 0.00 0.00 78 1012.3
20260506013544 49 309 0.0 2.0 0.00 0.00 0.00 78 1012.3
20260506013043 49 309 0.0 2.0 0.00 0.00 0.00 78 1012.4
20260506012543 49 309 0.0 2.0 0.00 0.00 0.00 76 1012.4
20260506012041 49 309 0.0 2.0 0.00 0.00 0.00 76 1012.4
20260506011517 50 309 0.0 2.0 0.00 0.00 0.00 76 1012.6
20260506011041 50 309 0.0 2.0 0.00 0.00 0.00 75 1012.7
20260506010541 50 309 0.0 4.0 0.00 0.00 0.00 75 1012.6
20260506010041 50 309 1.0 4.0 0.00 0.00 0.00 75 1012.5
20260506005540 50 309 2.0 4.0 0.00 0.00 0.00 75 1012.4
20260506005039 50 309 1.0 3.0 0.00 0.00 0.00 76 1012.4
20260506004543 50 309 1.0 3.0 0.00 0.00 0.00 76 1012.5
20260506004039 49 309 0.0 2.0 0.00 0.00 0.00 76 1012.5